Date String (YYYY-MM-DD hh:mm:ss) UTC,Instrument flags,Ambient pressure (hPa),Sample flow (lpm),Bypass flow (lpm),Sample temperature (°C),Ambient temperature (°C),ASC tube jacket temperature (°C),LED temperature (°C),Box temperature (°C),Sample RH (%),Span deviation,Mass concentration (μg/m³),Mass concentration (μg/m³),Mass concentration (μg/m³)
DateTimeUTC,F1_M11,P_M11,Q1_M11,Q2_M11,T1_M11,T2_M11,T3_M11,T4_M11,T5_M11,U1_M11,ZSPAN_M11,X0_M11,X2_M11,X1_M11
2022-03-12 03:00:00,,0828.1,4.99,0.00,22.6,21.8,00.0,31.6,24.4,06.7,0000.0,0009.72,0004.27,0003.69
2022-03-12 03:01:00,,0828.1,4.98,0.00,22.6,21.8,00.0,31.6,24.4,06.7,0000.0,0009.66,0004.25,0003.67
2022-03-12 03:02:00,,0828.1,5.02,0.00,22.6,21.8,00.0,31.6,24.3,06.8,0000.0,0009.61,0004.25,0003.66
2022-03-12 03:03:00,,0828.1,4.99,0.00,22.6,21.8,00.0,31.6,24.3,06.8,0000.0,0009.12,0004.21,0003.66
2022-03-12 03:04:00,,0828.1,5.02,0.00,22.6,21.7,00.0,31.6,24.3,06.9,0000.0,0007.98,0004.22,0003.67
2022-03-12 03:05:00,,0828.3,4.99,0.00,22.6,21.7,00.0,31.6,24.3,06.9,0000.0,0007.94,0004.28,0003.68
2022-03-12 03:06:00,,0828.2,5.00,0.00,22.6,21.7,00.0,31.6,24.3,07.0,0000.0,0008.14,0004.36,0003.70
2022-03-12 03:07:00,,0828.1,5.00,0.00,22.6,21.7,00.0,31.6,24.3,07.0,0000.0,0008.60,0004.37,0003.73
2022-03-12 03:08:00,,0828.0,4.99,0.00,22.5,21.7,00.0,31.5,24.3,07.0,0000.0,0009.04,0004.40,0003.77
2022-03-12 03:09:00,,0828.0,5.01,0.00,22.5,21.7,00.0,31.5,24.3,06.9,0000.0,0009.21,0004.50,0003.81
2022-03-12 03:10:00,,0827.9,5.01,0.00,22.5,21.7,00.0,31.5,24.3,06.9,0000.0,0009.33,0004.59,0003.86
2022-03-12 03:11:00,,0827.9,5.00,0.00,22.5,21.7,00.0,31.5,24.3,06.9,0000.0,0009.37,0004.65,0003.89
2022-03-12 03:12:00,,0827.9,5.00,0.00,22.5,21.7,00.0,31.5,24.3,07.0,0000.0,0009.47,0004.69,0003.92
2022-03-12 03:13:00,,0827.9,5.00,0.00,22.5,21.7,00.0,31.5,24.2,07.0,0000.0,0009.63,0004.71,0003.94
2022-03-12 03:14:00,,0827.9,5.00,0.00,22.5,21.7,00.0,31.5,24.2,07.0,0000.0,0009.56,0004.74,0003.95
2022-03-12 03:15:00,,0827.9,5.00,0.00,22.5,21.6,00.0,31.5,24.2,07.0,0000.0,0009.49,0004.75,0003.96
2022-03-12 03:16:00,,0827.9,5.00,0.00,22.5,21.6,00.0,31.5,24.2,07.0,0000.0,0009.43,0004.71,0003.95
2022-03-12 03:17:00,,0827.9,5.01,0.00,22.4,21.6,00.0,31.5,24.2,07.0,0000.0,0009.34,0004.66,0003.92
2022-03-12 03:18:00,,0827.9,5.00,0.00,22.4,21.7,00.0,31.5,24.2,07.1,0000.0,0008.92,0004.64,0003.89
2022-03-12 03:19:00,,0827.9,5.00,0.00,22.5,22.2,00.0,31.5,24.3,07.1,0000.0,0008.43,0004.58,0003.86
2022-03-12 03:20:00,,0827.9,4.99,0.00,22.7,22.9,00.0,31.5,24.6,07.0,0000.0,0008.40,0004.54,0003.84
2022-03-12 03:21:00,,0827.9,4.99,0.00,22.7,23.0,00.0,31.6,24.7,06.9,0000.0,0008.66,0004.51,0003.82
2022-03-12 03:22:00,,0827.9,5.00,0.00,22.8,22.8,00.0,31.6,24.7,06.9,0000.0,0008.59,0004.47,0003.81
2022-03-12 03:23:00,,0828.0,4.99,0.00,22.8,22.6,00.0,31.6,24.7,06.9,0000.0,0008.57,0004.48,0003.81
2022-03-12 03:24:00,,0827.9,5.01,0.00,22.8,22.5,00.0,31.6,24.6,06.9,0000.0,0008.44,0004.46,0003.78
2022-03-12 03:25:00,,0828.0,5.00,0.00,22.8,22.4,00.0,31.6,24.6,07.0,0000.0,0008.55,0004.45,0003.77
2022-03-12 03:26:00,,0827.9,5.00,0.00,22.8,22.3,00.0,31.6,24.6,06.9,0000.0,0008.92,0004.46,0003.76
2022-03-12 03:27:00,,0828.0,5.01,0.00,22.7,22.2,00.0,31.6,24.6,06.9,0000.0,0009.01,0004.48,0003.76
2022-03-12 03:28:00,,0828.0,5.00,0.00,22.7,22.1,00.0,31.6,24.5,06.9,0000.0,0009.04,0004.48,0003.78
2022-03-12 03:29:00,,0828.0,4.99,0.00,22.7,22.1,00.0,31.6,24.5,06.9,0000.0,0009.00,0004.49,0003.79
2022-03-12 03:30:00,,0827.9,4.99,0.00,22.7,22.1,00.0,31.6,24.5,07.0,0000.0,0008.99,0004.53,0003.82
2022-03-12 03:31:00,,0827.9,5.01,0.00,22.7,22.0,00.0,31.6,24.5,07.0,0000.0,0009.23,0004.49,0003.82
2022-03-12 03:32:00,,0827.9,5.00,0.00,22.7,22.0,00.0,31.6,24.5,07.0,0000.5,0009.04,0004.48,0003.82
2022-03-12 03:33:00,,0827.9,5.00,0.00,22.7,22.0,00.0,31.6,24.5,07.0,0001.0,0009.80,0004.47,0003.81
2022-03-12 03:34:00,,0827.9,4.99,0.00,22.7,21.9,00.0,31.6,24.4,07.0,0000.6,0009.89,0004.45,0003.80
2022-03-12 03:35:00,,0827.8,5.00,0.00,22.7,21.9,00.0,31.6,24.4,07.0,0000.0,0009.92,0004.45,0003.81
2022-03-12 03:36:00,,0827.8,4.99,0.00,22.6,21.9,00.0,31.6,24.4,07.0,0000.0,0009.98,0004.48,0003.81
2022-03-12 03:37:00,,0827.7,4.99,0.00,22.6,21.8,00.0,31.6,24.4,07.0,0000.0,0009.69,0004.48,0003.81
2022-03-12 03:38:00,,0827.8,5.00,0.00,22.6,21.8,00.0,31.6,24.4,07.0,0000.0,0009.54,0004.46,0003.82
2022-03-12 03:39:00,,0827.8,4.99,0.00,22.6,21.8,00.0,31.6,24.3,07.0,0000.0,0009.40,0004.42,0003.81
2022-03-12 03:40:00,,0827.8,5.01,0.00,22.6,21.8,00.0,31.6,24.3,07.0,0000.0,0009.34,0004.39,0003.80
2022-03-12 03:41:00,,0827.8,5.01,0.00,22.6,21.8,00.0,31.6,24.3,07.0,0000.9,0009.51,0004.36,0003.78
2022-03-12 03:42:00,,0827.7,5.00,0.00,22.6,21.7,00.0,31.6,24.3,07.1,0002.9,0009.88,0004.41,0003.79
2022-03-12 03:43:00,,0827.7,4.99,0.00,22.6,21.7,00.0,31.6,24.3,07.1,0000.8,0009.77,0004.41,0003.78
2022-03-12 03:44:00,,0827.7,5.01,0.00,22.5,21.7,00.0,31.6,24.3,07.1,0000.0,0009.49,0004.43,0003.78
2022-03-12 03:45:00,,0827.7,5.01,0.00,22.5,21.6,00.0,31.5,24.3,07.1,0000.0,0009.73,0004.46,0003.79
2022-03-12 03:46:00,,0827.7,5.00,0.00,22.5,21.6,00.0,31.5,24.3,07.0,0000.0,0010.23,0004.47,0003.79
2022-03-12 03:47:00,,0827.7,4.99,0.00,22.5,21.6,00.0,31.5,24.3,07.1,0000.0,0010.25,0004.44,0003.80
2022-03-12 03:48:00,,0827.7,4.99,0.00,22.5,21.6,00.0,31.5,24.2,07.1,0000.0,0010.31,0004.45,0003.81
2022-03-12 03:49:00,,0827.7,5.00,0.00,22.5,21.6,00.0,31.5,24.2,07.1,0000.0,0010.35,0004.45,0003.80
2022-03-12 03:50:00,,0827.7,5.00,0.00,22.5,22.0,00.0,31.5,24.3,07.0,0000.0,0010.48,0004.49,0003.81
2022-03-12 03:51:00,,0827.7,5.01,0.00,22.6,22.8,00.0,31.6,24.6,07.0,0000.0,0010.56,0004.49,0003.81
2022-03-12 03:52:00,,0827.7,4.99,0.00,22.8,23.2,00.0,31.6,24.8,06.9,0000.0,0010.53,0004.49,0003.82
2022-03-12 03:53:00,,0827.7,5.01,0.00,22.8,23.0,00.0,31.6,24.8,06.9,0000.0,0010.46,0004.47,0003.82
2022-03-12 03:54:00,,0827.7,4.99,0.00,22.8,22.8,00.0,31.6,24.8,06.9,0000.0,0010.57,0004.50,0003.83
2022-03-12 03:55:00,,0827.7,5.00,0.00,22.8,22.6,00.0,31.6,24.7,06.9,0000.0,0010.17,0004.53,0003.83
2022-03-12 03:56:00,,0827.7,5.00,0.00,22.8,22.5,00.0,31.7,24.7,06.9,0000.0,0010.25,0004.50,0003.84
2022-03-12 03:57:00,,0827.7,5.00,0.00,22.8,22.4,00.0,31.7,24.7,07.0,0000.0,0009.84,0004.47,0003.84
2022-03-12 03:58:00,,0827.7,5.00,0.00,22.8,22.3,00.0,31.7,24.6,07.0,0000.0,0009.63,0004.47,0003.84
2022-03-12 03:59:00,,0827.7,5.01,0.00,22.8,22.2,00.0,31.7,24.6,07.0,0000.0,0009.61,0004.46,0003.84
